Humidity-temperature Sensor

Selected Measurement Type: Relative Humidity

 
Relative Humidity [%]     6 entries per hour
Showing data from 9/13/2017 (00:00:00 Z) to 9/12/2017 (00:01:00 Z)
Previous Next [ Day | 3-Days | 7-Days ]
First Last
Prev [ Day | 3-Days | 7-Days ] Next
First Last

Start Time:     :
End Time:     :     
Time (in GMT) :00 :50 :40 :30 :20 :10
Previous Next [ Day | 3-Days | 7-Days ]
First Last
Prev [ Day | 3-Days | 7-Days ] Next
First Last


123 => good data
MM => data is determined as missing
-- => data not received/configured
Back to Top Back to Top
9/13/2017 00:00 to 23:10 83.34 82.83 84.83 82.92 78.58 76.47
9/12/2017 23:00 to 22:10 79.42 79.52 79.55 78.68 77.33 79.92
9/12/2017 22:00 to 21:10 79.86 77.19 78.30 78.24 78.32 76.74
9/12/2017 21:00 to 20:10 78.79 78.20 78.93 78.18 76.74 77.14
9/12/2017 20:00 to 19:10 79.04 81.04 80.58 79.92 78.85 83.25
9/12/2017 19:00 to 18:10 81.50 78.20 77.88 78.11 77.75 77.99
9/12/2017 18:00 to 17:10 78.05 78.72 79.44 79.12 79.59 79.21
9/12/2017 17:00 to 16:10 78.81 79.27 79.08 79.40 80.11 79.82
9/12/2017 16:00 to 15:10 80.13 79.73 78.70 78.91 78.68 78.53
9/12/2017 15:00 to 14:10 78.24 79.44 79.86 79.57 79.90 81.57
9/12/2017 14:00 to 13:10 85.65 88.14 88.52 87.02 80.91 80.26
9/12/2017 13:00 to 12:10 81.02 80.79 81.00 81.50 85.32 85.80
9/12/2017 12:00 to 11:10 84.73 84.41 79.86 79.25 80.39 80.94
9/12/2017 11:00 to 10:10 80.45 80.75 79.78 82.33 80.62 82.79
9/12/2017 10:00 to 9:10 80.07 78.03 77.08 80.39 80.37 86.07
9/12/2017 09:00 to 8:10 80.85 77.97 77.86 78.60 78.43 77.92
9/12/2017 08:00 to 7:10 77.86 78.53 78.77 78.87 77.19 76.70
9/12/2017 07:00 to 6:10 78.30 77.84 78.30 77.50 78.49 77.29
9/12/2017 06:00 to 5:10 76.87 76.20 76.98 78.51 79.73 81.90
9/12/2017 05:00 to 4:10 86.24 86.18 86.94 87.11 85.48 84.92
9/12/2017 04:00 to 3:10 83.48 79.04 79.52 75.08 72.47 70.24
9/12/2017 03:00 to 2:10 68.42 69.41 73.52 76.22 75.42 76.39
9/12/2017 02:00 to 1:10 79.19 81.10 81.63 75.08 73.08 85.74
9/12/2017 01:00 to 0:10 86.54 88.03 85.02 78.79 79.10 77.50